When you browse on this site, cookies collect data to enhance your experience and personalize the content and advertising you see.
Visit our Privacy Policy to learn more. By continuing to use the site, you agree to this use of cookies and data.
  • In Spain
  • List of Countries
  • For 7 days
  • Water Temperature
  • Weather Map
  • Weather Widgets
  • user-avatar
    Login

    Hourly Weather Berezno

    Today, 3 April, Friday

    Time Temperature Precipitation Wind Pressure Humidity
    00:00 +3°C° 0 mm 2 mps 742 mmHg 71%
    01:00 +1°C° 0 mm 3 mps 741 mmHg 71%
    02:00 +1°C° 0 mm 3 mps 741 mmHg 71%
    03:00 0°C° 0 mm 4 mps 741 mmHg 68%
    04:00 0°C° 0 mm 4 mps 741 mmHg 66%
    05:00 0°C° 0 mm 4 mps 740 mmHg 64%
    06:00 +1°C° 0 mm 5 mps 740 mmHg 61%
    07:00 +2°C° 0 mm 5 mps 740 mmHg 57%
    08:00 +3°C° 0 mm 6 mps 741 mmHg 54%
    09:00 +4°C° 0 mm 6 mps 741 mmHg 50%
    10:00 +7°C° 0 mm 6 mps 740 mmHg 46%
    11:00 +9°C° 0 mm 6 mps 740 mmHg 42%
    12:00 +10°C° 0 mm 6 mps 741 mmHg 42%
    13:00 +10°C° 0 mm 7 mps 741 mmHg 42%
    14:00 +11°C° 0 mm 7 mps 741 mmHg 42%
    15:00 +10°C° 0 mm 7 mps 741 mmHg 45%
    16:00 +10°C° 0 mm 6 mps 741 mmHg 48%
    17:00 +9°C° 0 mm 6 mps 741 mmHg 51%
    18:00 +8°C° 0 mm 5 mps 742 mmHg 59%
    19:00 +6°C° 0 mm 4 mps 743 mmHg 67%
    20:00 +5°C° 0 mm 4 mps 743 mmHg 75%
    21:00 +4°C° 0 mm 3 mps 744 mmHg 78%
    22:00 +3°C° 0 mm 3 mps 744 mmHg 80%
    23:00 +2°C° 0 mm 3 mps 745 mmHg 82%

    Tomorrow, 4 April, Saturday

    Time Temperature Precipitation Wind Pressure Humidity
    00:00 +2°C° 0 mm 3 mps 745 mmHg 81%
    01:00 +2°C° 0 mm 3 mps 746 mmHg 80%
    02:00 +1°C° 0 mm 3 mps 747 mmHg 79%
    03:00 +1°C° 0 mm 3 mps 747 mmHg 79%
    04:00 0°C° 0 mm 3 mps 748 mmHg 79%
    05:00 0°C° 0 mm 3 mps 748 mmHg 80%
    06:00 +1°C° 0 mm 3 mps 749 mmHg 74%
    07:00 +2°C° 0 mm 3 mps 749 mmHg 68%
    08:00 +3°C° 0 mm 3 mps 750 mmHg 62%
    09:00 +5°C° 0 mm 4 mps 750 mmHg 54%
    10:00 +6°C° 0 mm 4 mps 751 mmHg 46%
    11:00 +7°C° 0 mm 4 mps 751 mmHg 39%
    12:00 +8°C° 0 mm 4 mps 751 mmHg 36%
    13:00 +8°C° 0 mm 4 mps 751 mmHg 33%
    14:00 +10°C° 0 mm 4 mps 752 mmHg 30%
    15:00 +10°C° 0 mm 4 mps 752 mmHg 31%
    16:00 +8°C° 0 mm 4 mps 752 mmHg 32%
    17:00 +8°C° 0 mm 4 mps 752 mmHg 32%
    18:00 +8°C° 0 mm 3 mps 753 mmHg 38%
    19:00 +6°C° 0 mm 2 mps 753 mmHg 43%
    20:00 +5°C° 0 mm 2 mps 754 mmHg 48%
    21:00 +4°C° 0 mm 2 mps 754 mmHg 50%
    22:00 +4°C° 0 mm 2 mps 755 mmHg 52%
    23:00 +3°C° 0 mm 2 mps 756 mmHg 53%

    Day after tomorrow, 5 April, Sunday

    Time Temperature Precipitation Wind Pressure Humidity
    00:00 +2°C° 0 mm 2 mps 756 mmHg 56%
    01:00 +2°C° 0 mm 2 mps 756 mmHg 60%
    02:00 +1°C° 0 mm 2 mps 757 mmHg 63%
    03:00 +1°C° 0 mm 2 mps 757 mmHg 67%
    04:00 -1°C° 0 mm 2 mps 758 mmHg 72%
    05:00 -1°C° 0 mm 2 mps 758 mmHg 76%
    06:00 +1°C° 0 mm 2 mps 759 mmHg 70%
    07:00 +1°C° 0 mm 3 mps 759 mmHg 64%
    08:00 +2°C° 0 mm 3 mps 760 mmHg 58%
    09:00 +3°C° 0 mm 3 mps 760 mmHg 51%
    10:00 +4°C° 0 mm 3 mps 761 mmHg 44%
    11:00 +5°C° 0 mm 3 mps 761 mmHg 37%
    12:00 +7°C° 0 mm 3 mps 761 mmHg 35%
    13:00 +8°C° 0 mm 3 mps 761 mmHg 32%
    14:00 +9°C° 0 mm 3 mps 761 mmHg 30%
    15:00 +9°C° 0 mm 3 mps 761 mmHg 31%
    16:00 +8°C° 0 mm 3 mps 761 mmHg 31%
    17:00 +8°C° 0 mm 2 mps 761 mmHg 32%
    18:00 +7°C° 0 mm 2 mps 761 mmHg 37%
    19:00 +5°C° 0 mm 2 mps 761 mmHg 42%
    20:00 +4°C° 0 mm 2 mps 762 mmHg 46%
    21:00 +3°C° 0 mm 2 mps 762 mmHg 47%
    22:00 +3°C° 0 mm 2 mps 762 mmHg 48%
    23:00 +2°C° 0 mm 2 mps 762 mmHg 49%

    6 April, Monday

    Time Temperature Precipitation Wind Pressure Humidity
    00:00 +1°C° 0 mm 2 mps 763 mmHg 51%
    01:00 +1°C° 0 mm 2 mps 763 mmHg 53%
    02:00 -1°C° 0 mm 2 mps 763 mmHg 55%
    03:00 -1°C° 0 mm 2 mps 763 mmHg 55%
    04:00 -1°C° 0 mm 2 mps 763 mmHg 56%
    05:00 -1°C° 0 mm 2 mps 763 mmHg 56%
    06:00 +1°C° 0 mm 2 mps 763 mmHg 52%
    07:00 +2°C° 0 mm 3 mps 764 mmHg 47%
    08:00 +3°C° 0 mm 3 mps 764 mmHg 42%
    09:00 +5°C° 0 mm 3 mps 764 mmHg 39%
    10:00 +7°C° 0 mm 4 mps 764 mmHg 36%
    11:00 +8°C° 0 mm 4 mps 764 mmHg 33%
    12:00 +10°C° 0 mm 4 mps 764 mmHg 32%
    13:00 +11°C° 0 mm 4 mps 764 mmHg 31%
    14:00 +12°C° 0 mm 4 mps 763 mmHg 30%
    15:00 +12°C° 0 mm 3 mps 763 mmHg 31%
    16:00 +12°C° 0 mm 3 mps 762 mmHg 32%
    17:00 +12°C° 0 mm 3 mps 762 mmHg 33%
    18:00 +10°C° 0 mm 3 mps 762 mmHg 38%
    19:00 +8°C° 0 mm 3 mps 762 mmHg 43%
    20:00 +6°C° 0 mm 2 mps 762 mmHg 48%
    21:00 +5°C° 0 mm 3 mps 762 mmHg 50%
    22:00 +4°C° 0 mm 3 mps 762 mmHg 51%
    23:00 +3°C° 0 mm 3 mps 762 mmHg 53%

    7 April, Tuesday

    Time Temperature Precipitation Wind Pressure Humidity
    00:00 +3°C° 0 mm 3 mps 762 mmHg 53%
    01:00 +2°C° 0 mm 3 mps 762 mmHg 54%
    02:00 +2°C° 0 mm 3 mps 761 mmHg 54%
    03:00 +2°C° 0 mm 3 mps 761 mmHg 55%
    04:00 +1°C° 0 mm 3 mps 761 mmHg 55%
    05:00 +1°C° 0 mm 3 mps 762 mmHg 56%
    06:00 +2°C° 0 mm 3 mps 762 mmHg 52%
    07:00 +4°C° 0 mm 3 mps 762 mmHg 48%
    08:00 +5°C° 0 mm 4 mps 762 mmHg 44%
    09:00 +7°C° 0 mm 4 mps 761 mmHg 41%
    10:00 +10°C° 0 mm 4 mps 761 mmHg 37%
    11:00 +12°C° 0 mm 4 mps 761 mmHg 34%
    12:00 +14°C° 0 mm 4 mps 761 mmHg 32%
    13:00 +15°C° 0 mm 4 mps 761 mmHg 30%
    14:00 +17°C° 0 mm 4 mps 760 mmHg 28%
    15:00 +17°C° 0 mm 3 mps 760 mmHg 29%
    16:00 +16°C° 0 mm 3 mps 760 mmHg 30%
    17:00 +16°C° 0 mm 3 mps 759 mmHg 31%
    18:00 +14°C° 0 mm 2 mps 759 mmHg 36%
    19:00 +12°C° 0 mm 2 mps 759 mmHg 41%
    20:00 +9°C° 0 mm 2 mps 759 mmHg 46%
    21:00 +9°C° 0 mm 2 mps 759 mmHg 48%
    22:00 +8°C° 0 mm 2 mps 759 mmHg 50%
    23:00 +7°C° 0 mm 2 mps 759 mmHg 52%

    8 April, Wednesday

    Time Temperature Precipitation Wind Pressure Humidity
    00:00 +7°C° 0 mm 2 mps 759 mmHg 53%
    01:00 +6°C° 0 mm 2 mps 759 mmHg 55%
    02:00 +6°C° 0 mm 2 mps 759 mmHg 56%
    03:00 +6°C° 0 mm 2 mps 759 mmHg 58%
    04:00 +5°C° 0 mm 2 mps 759 mmHg 60%
    05:00 +5°C° 0 mm 2 mps 759 mmHg 62%
    06:00 +6°C° 0 mm 2 mps 759 mmHg 59%
    07:00 +8°C° 0 mm 2 mps 759 mmHg 56%
    08:00 +9°C° 0 mm 2 mps 759 mmHg 53%
    09:00 +11°C° 0 mm 3 mps 759 mmHg 47%
    10:00 +13°C° 0 mm 3 mps 759 mmHg 41%
    11:00 +17°C° 0 mm 3 mps 759 mmHg 36%
    12:00 +17°C° 0 mm 3 mps 758 mmHg 34%
    13:00 +18°C° 0 mm 4 mps 758 mmHg 32%
    14:00 +19°C° 0 mm 4 mps 758 mmHg 30%
    15:00 +18°C° 0 mm 4 mps 758 mmHg 33%
    16:00 +18°C° 0 mm 3 mps 757 mmHg 36%
    17:00 +18°C° 0 mm 3 mps 757 mmHg 39%
    18:00 +16°C° 0 mm 3 mps 757 mmHg 47%
    19:00 +14°C° 0 mm 2 mps 757 mmHg 56%
    20:00 +13°C° 0 mm 2 mps 757 mmHg 64%
    21:00 +12°C° 0 mm 2 mps 757 mmHg 70%
    22:00 +10°C° 0 mm 2 mps 757 mmHg 76%
    23:00 +9°C° 0 mm 2 mps 758 mmHg 81%
    Show more